sat.trackr.live / text

‹ back to catalog

ONEWEB-0205

NORAD 48226 · 2021-031S

PAYLOAD ACTIVE UNKNOWN

§ Identity

Operator
Country
UK
Launch date
2021-04-25
Launch site
VOSTO
Launch vehicle
Mass (kg)
RCS (m²)

Purposes: comms

External: N2YO · Heavens-Above · Gunter

§ Orbital elements

Epoch: 2026-09-19T23:33:42.107904Z

Period
109.55 min
Inclination
87.8897°
Eccentricity
0.0001639
Mean motion
13.14503949 rev/d
Perigee alt
1,204.5 km
Apogee alt
1,207.0 km
Semi-major
7,583.9 km
B*
-3.7285e-4
RAAN
270.7959°
Arg perigee
92.1076°
Mean anomaly
268.0242°
Rev number
26,072

§ Raw data

ONEWEB-02051 48226U 21031S   26262.98173736 -.00000125  00000+0 -37285-3 0  99982 48226  87.8897 270.7959 0001639  92.1076 268.0242 13.14503949260724

JSON: /api/v1/satellites/48226 · /tle

For live sub-satellite position, see the globe view (requires WebGL).

§ Visibility from observer

Set your observer location to see the next 7 days of passes ≥ 10°. The values pass through the URL so the page stays shareable.

No JS? Fill the form by hand. The geolocation button needs JavaScript.